QZS-1 (MICHIBIKI)

导读 | 豆包AI

QZS-1(昵称“导”,MICHIBIKI)是日本于2010年9月11日发射的首颗准天顶卫星系统(QZSS)卫星,是日本自主卫星导航发展的里程碑节点。它运行在倾斜地球同步轨道,可增强GPS在东亚及日本区域的定位精度,填补山区、城市峡谷的信号覆盖盲区,承担技术验证与区域导航增强任务,为后续准天顶系统组网奠定技术基础,也提升了日本区域定位服务的可靠性。

基本信息
目录编号:
37158
目录名称:
QZS-1 (MICHIBIKI)
国际标识:
2010-045A
轨道中心:
EARTH
卫星名称:
QZS-1 (MICHIBIKI)
卫星全名:
--
卫星状态:
在轨 (已飞行5663 天)
发射日期:
2010-09-11 UTC
国别 :
日本 (JP)
星等 :
--
轨道信息
数据来源 国际轨道数据 AOE轨道数据
星历时间 2026-03-13T18:13:15+0800
15小时前
查看轨道信息
2026-03-13T13:00:00+0800
20小时前
查看轨道信息
半长轴 46098.128km 46098.163km
偏心率 0.0002661 0.0002717
轨道倾角 44.092° 44.092°
近地点辐角 25.090° 25.605°
升交点赤经 117.436° 117.438°
平近点角 162.245° 93.035°
近地点 39707.724km 39707.501km
远地点 39732.258km 39732.551km
周期 1641.665分钟 1641.667分钟
每日圈数 0.877158 0.877157
详细信息
使用方式:
暂无
2D轨道图
3D轨道图
轨道高度分析图
轨道倾角分析图
轨道综合分析图
查看轨道综合分析图